Погода Токо

Погода Токо : погода сейчас, прогноз погоды и архив. Всё, что Вы хотите узнать о погоде Токо!

Хотите узнать прогноз погоды Токо? Тогда Вам сюда: Погода Токо

Поиск расширенной информации на нашем сайте:

Другие новости

Новости СМИ2

Главная страница сайта

Новости сайта

03.07.2017

Напоминаем, что на нашем специализированном сайте Метеоцентр.Азия вы можете получить высокодетализированные автоматические прогнозы погоды по пунктам России, СНГ и мира в авиационном формате (включающие направление и скорость ветра, видимость, явления погоды, количество и форму облачности, нижнюю и верхнюю границу облачности).

Рекомендуем: Стенды и доски информации-Москва - школьные стенды. Стойки и стенды.

Погода Токо - сегодня

Время (UTC), дата Ветер
(°,м/с) 
Видим.   Явления Облачность Т
(°С)
Тd
(°С)
f(%) Тe
(°С)
Pmin
(гПа)
dP
(гПа)
Po
(мм)
O2
(г/м3)
Тmin Tmax R s Состояние
почвы
03 14.08.18 140 (ЮВ) 20000 м    6/6 600 м 
[Cu hum]
+18.6 +9.5 55 +22  1015.1  690  259           
06 14.08.18 140 (ЮВ) 20000 м    6/6 600 м 
[Cu hum]
+19.8 +9.9 53 +24  1014.7  690  257           
09 14.08.18 340 (С) 20000 м    4/4 600 м кучево-дожд. 
[Cb cap]
+16.6 +7 53 +18  1015.8  -0.1  690  261           
15 14.08.18 тихо ()   20000 м    ясно 
-5 +4.1 100 -5  1023.1  1.4  692  283           
18 14.08.18 270 (З) 20000 м    3/3 600 м 
[Sc]
+0.7 +0.4 98 +1  1025.2  0.4  692  278           
21 14.08.18 230 (ЮЗ) 20000 м    3/3 600 м 
[Sc]
-1.7 -2 98 -1  1027.7  1.2  693  281           
00 15.08.18 270 (З) 20000 м    3/3 600 м 
[Cu med, cong]
+13.6 +9.5 76 +17  1021.8  0.2  694  264  -1.7        сухая 
03 15.08.18 тихо ()   20000 м    4/4 600 м 
[Cu med, cong]
+18.9 +7.8 48 +19  1019.2  -0.7  695  261           
06 15.08.18 270 (З) 20000 м    6/6 600 м 
[Cu med, cong]
+21 +7.4 41 +21  1017.1  -1.6  692  258           
09 15.08.18 320 (СЗ) 20000 м    4/3 600 м верхняя 
[Cu med, cong|Ci fib]
+21.2 +7.7 42 +21  1015.2  -1.3  691  257           
12 15.08.18 200 (Ю) 20000 м    3/3 600 м 
[Sc diur, vesp]
+9.2 +7.7 90 +10  1019.4  691  268    +21.2       
15 15.08.18 270 (З) 20000 м    ясно 
+2.3 +1.8 96 +3  1023.2  692  276           
18 15.08.18 тихо ()   20000 м    ясно 
-1.2 -1.8 96 -1  1025.7  0.7  692  280           
21 15.08.18 270 (З) 20000 м    4/0 средняя 
[Ac cast]
-1.6 -1.9 98 -1  1024.6  -0.9  691  280           
03 16.08.18 тихо ()   20000 м    4/3 600 м верхняя 
[Cu med, cong|Ci fib]
+22.7 +9.3 42 +25  1012.5  -1.8  689  255           
06 16.08.18 230 (ЮЗ) 20000 м    6/6 600 м кучево-дожд. 
[Cb cap]
+25 +10.3 40 +28  1010  -1.6  688  252           
09 16.08.18 230 (ЮЗ) 20000 м    6/4 600 м кучево-дожд., верхняя 
[Cb cap|Ci fib]
+21.4 +10.6 50 +25  1010.3  -0.8  688  255           
15 16.08.18 тихо ()   20000 м    8/0 верхняя 
[Cs]
+9 +8.8 99 +10  1014.6  -0.3  688  266           
18 16.08.18 230 (ЮЗ) 20000 м    3/0 верхняя 
[Ci ing]
+5.2 +5 99 +6  1015.6  -0.4  687  271           
21 16.08.18 180 (Ю) 20000 м  дымка  3/0 верхняя 
[Ci ing]
+1.2 +1.3 100 +2  1016.1  -1  686  275           
03 17.08.18 тихо ()   20000 м    10/0 средняя, верхняя 
[Ac lent|Cs]
+21.8 +13.3 58 +30  1005.9  -1.3  685  253           
06 17.08.18 520 () 20000 м    10/6 600 м верхняя 
[Sc|Cs]
+22.8 +11.2 48 +28  1004.5  -1  684  252           
09 17.08.18 270 (З) 20000 м    10/8 600 м верхняя 
[Sc|Cs]
+20.9 -2 21 +21  1004.3  -0.7  683  256           
15 17.08.18 270 (З) 20000 м    8/8 600 м 
[Sc]
+13 +9.4 79 +15  1006.9  -0.4  683  261           
18 17.08.18 тихо ()   20000 м    4/4 600 м 
[Sc]
+6.4 +5.7 95 +6  1008.6  -0.6  683  268           
Время (UTC), дата Ветер
(°,м/с) 
Видим.   Явления Облачность Т
(°С)
Тd
(°С)
f(%) Тe
(°С)
Pmin
(гПа)
dP
(гПа)
Po
(мм)
O2
(г/м3)
Тmin Tmax R s Состояние
почвы

Для получения пояснительной информации подведите курсор к названию столбца.

ПОГОДА Токо - архив

Всё, что Вы хотите узнать о погоде Токо - удобно и подробно!

Выберите нужную дату (начиная с 1 января 2015* года) и нажмите кнопку "Найти".
Будут отображены архивные сводки погоды по пункту Токо, начиная с указанной даты.


Отображать данные в формате CSV (для использования в таблицах Excel)


Внимание! Наш архив погоды предназначен исключительно для личного некоммерческого использования в познавательных целях. Если Вам необходимы официальные справки о состоянии погоды (для производственных, юридических, коммерческих и т.п. целей), обращайтесь в органы Росгидромета.

*Примечание: данная дата относится к архиву по метеостанциям СССР (Россия, СНГ, Балтия).
Архив по метеостанциям Зарубежной Европы и Азии (кроме Китая) хранится 10 дней, по другим регионам земного шара (Китай, Африка, Америка, Австралия, Океания) - 1 день.

Токо - район местоположения метеостанции


Название, широта, долгота, высота метеостанции:
Токо 56.3°ш. 131.1°д. 850 м над ур. моря [Российская Федерация]

Дополнительная информация

В oтличие oт бoльшинства пoгoдных сайтoв мы публикуем пoдрoбную метеoинфoрмацию в детальнoм прoфессиoнальнoм фoрмате.

Характеристики температуры и влажнoсти вoздуха измеряются на высoте 2 м в тени вдали oт зданий и деревьев.
Скoрoсть ветра измеряется на высoте 10 м (на урoвне рoста челoвека скoрoсть ветра ниже в 1.5-2 раза). Если метеoстанция нахoдится в гoрoде или в лесу, тo скoрoсть ветра занижена на 2-4 м/с пo сравнению с oткрытым местoм. Скoрoсть ветра над акватoриями крупных рек и oзёр, а также на вершинах хoлмoв на 2-5 м/с выше, чем в oбычных услoвиях.
Атмoсфернoе давление в разных тoчках местнoсти мoжет значительнo oтличаться oт давления на метеoстанции, в зависимoсти oт услoвий рельефа (при пoдъёме на 10 м давление пoнижается примернo на 1 мм рт.ст.).